period_start,C,m1,H,J0,J1,J2,J3,J4,J5,JA,JB,JC,JD,JJ,JK,JN,#
2018-07-28 00:04:24,-0.02,0.01,0.00,27.85,29.79,32.66,13.60,46.03,1015.17,2018.58,3446.37,3068.94,3536.99,600.09,585.65,1.16,0000 0000 0000 0000 000000
2018-07-28 00:09:25,0.02,0.01,0.00,27.90,29.91,32.76,13.60,46.16,1015.17,2018.02,3445.52,3068.11,3535.97,600.07,585.56,1.21,0000 0000 0000 0000 000000
2018-07-28 00:14:26,0.03,0.01,0.00,27.96,30.02,32.88,13.56,46.08,1015.16,2017.54,3444.08,3066.72,3534.27,599.98,585.44,1.26,0000 0000 0000 0000 000000
2018-07-28 00:19:28,0.02,0.01,0.00,27.99,30.13,32.98,13.59,46.14,1015.15,2017.01,3442.96,3065.58,3532.91,599.80,585.13,1.31,0000 0000 0000 0000 000000
2018-07-28 00:24:29,-0.03,0.01,0.00,28.04,30.24,33.09,13.63,45.98,1015.16,2016.56,3442.07,3064.88,3531.95,600.36,585.50,1.36,0000 0000 0000 0000 000000
2018-07-28 00:29:31,0.02,0.01,0.00,28.07,30.34,33.19,13.57,46.05,1015.16,2016.02,3441.25,3064.07,3530.99,599.58,584.76,1.41,0000 0000 0000 0000 000000
2018-07-28 00:34:32,0.03,0.01,0.00,28.10,30.44,33.26,13.61,45.98,1015.16,2015.87,3440.43,3063.37,3530.03,600.15,585.21,1.46,0000 0000 0000 0000 000000
2018-07-28 00:39:33,0.01,0.01,0.00,28.13,30.54,33.34,13.65,46.04,1015.16,2015.11,3439.43,3062.34,3528.70,599.85,584.90,1.51,0000 0000 0000 0000 000000
2018-07-28 00:44:35,0.07,0.02,0.00,28.15,30.63,33.41,13.64,45.95,1015.16,2014.76,3437.33,3060.18,3526.35,600.45,585.37,1.56,0000 0000 0000 0000 000000
2018-07-28 00:49:36,0.05,0.02,0.00,28.19,30.72,33.48,13.61,45.86,1015.16,2014.04,3435.22,3058.56,3524.28,600.57,585.53,1.61,0000 0000 0000 0000 000000
2018-07-28 00:54:37,0.02,0.02,0.00,28.22,30.81,33.54,13.62,46.10,1015.15,2013.98,3434.54,3057.97,3523.45,599.87,584.86,1.66,0000 0000 0000 0000 000000
2018-07-28 00:59:38,-0.03,0.02,0.00,28.25,30.89,33.60,13.57,46.02,1015.15,2013.40,3433.86,3057.17,3522.72,599.93,584.69,1.71,0000 0000 0000 0000 000000
2018-07-28 01:04:40,0.02,0.02,0.00,28.30,30.97,33.65,13.58,46.02,1015.15,2013.01,3433.05,3056.62,3521.92,599.92,584.73,1.76,0000 0000 0000 0000 000000
2018-07-28 01:09:41,-0.01,0.02,0.00,28.31,31.04,33.72,13.64,46.17,1015.15,2012.78,3432.35,3055.98,3521.05,599.99,584.71,1.81,0000 0000 0000 0000 000000
2018-07-28 01:14:42,-0.00,0.02,0.00,28.35,31.12,33.79,13.60,46.16,1015.15,2012.08,3431.70,3055.18,3520.21,599.96,584.61,1.87,0000 0000 0000 0000 000000
2018-07-28 01:19:44,0.01,0.02,0.00,28.37,31.19,33.86,13.58,46.11,1015.15,2012.00,3431.03,3054.92,3519.82,599.90,584.46,1.92,0000 0000 0000 0000 000000
2018-07-28 01:24:45,0.02,0.02,0.00,28.40,31.26,33.91,13.62,46.13,1015.15,2011.87,3430.43,3054.18,3519.06,599.26,583.84,1.97,0000 0000 0000 0000 000000
2018-07-28 01:29:46,-0.03,0.02,0.00,28.42,31.33,33.95,13.65,46.20,1015.15,2011.17,3429.89,3053.75,3518.41,600.07,584.55,2.02,0000 0000 0000 0000 000000
2018-07-28 01:34:48,0.02,0.02,0.00,28.44,31.38,34.02,13.63,46.15,1015.15,2011.00,3429.10,3053.03,3517.85,600.18,584.62,2.07,0000 0000 0000 0000 000000
2018-07-28 01:39:49,0.02,0.02,0.00,28.47,31.45,34.06,13.54,45.98,1015.10,2010.97,3428.75,3052.79,3517.07,599.87,584.18,2.12,0000 0000 0000 0000 000000
2018-07-28 01:44:50,-0.03,0.02,0.00,28.50,31.51,34.11,13.59,46.13,1015.09,2010.47,3428.03,3052.05,3516.60,599.68,583.99,2.17,0000 0000 0000 0000 000000
2018-07-28 01:49:51,0.01,0.02,0.00,28.52,31.57,34.17,13.59,46.14,1015.02,2010.03,3427.46,3051.74,3515.97,600.15,584.37,2.22,0000 0000 0000 0000 000000
2018-07-28 01:54:52,0.02,0.02,0.00,28.56,31.62,34.23,13.61,46.21,1014.82,2010.00,3426.99,3051.06,3515.19,600.03,584.06,2.27,0000 0000 0000 0000 000000
2018-07-28 01:59:53,0.02,0.02,0.00,28.59,31.68,34.27,13.56,46.17,1014.68,2009.82,3426.17,3050.54,3514.53,600.54,584.16,2.32,0000 0000 0000 0000 000000
2018-07-28 02:04:54,0.02,0.03,0.00,28.62,31.73,34.34,13.53,46.09,1014.72,2009.20,3424.86,3048.94,3512.60,599.97,583.75,2.37,0000 0000 0000 0000 000000
2018-07-28 02:09:56,0.04,0.03,0.00,28.64,31.79,34.35,13.54,46.23,1014.80,2009.01,3423.90,3048.03,3511.44,599.89,583.74,2.42,0000 0000 0000 0000 000000
2018-07-28 02:14:57,0.04,0.03,0.00,28.67,31.84,34.41,13.61,46.18,1014.75,2008.99,3423.08,3047.21,3510.59,600.18,583.83,2.47,0000 0000 0000 0000 000000
2018-07-28 02:19:58,0.01,0.03,0.00,28.70,31.89,34.45,13.60,46.21,1014.69,2008.86,3422.41,3046.86,3509.93,599.89,583.43,2.52,0000 0000 0000 0000 000000
2018-07-28 02:24:59,-0.03,0.03,0.00,28.72,31.93,34.50,13.60,46.24,1014.69,2008.24,3421.99,3046.11,3509.11,600.13,583.73,2.57,0000 0000 0000 0000 000000
2018-07-28 02:30:00,0.01,0.03,0.00,28.75,31.98,34.55,13.67,46.25,1014.68,2008.01,3421.38,3045.97,3508.78,600.17,583.77,2.62,0000 0000 0000 0000 000000
2018-07-28 02:35:01,0.03,0.03,0.00,28.76,32.02,34.58,13.56,46.05,1014.68,2008.00,3420.98,3045.36,3508.04,599.73,583.31,2.67,0000 0000 0000 0000 000000
2018-07-28 02:40:02,0.01,0.03,0.00,28.69,32.06,34.65,13.60,46.09,1014.67,2007.93,3420.41,3045.00,3507.83,599.85,583.47,2.72,0000 0000 0000 0000 000000
2018-07-28 02:45:04,-0.00,0.03,0.00,28.57,32.10,34.73,13.63,46.20,1014.66,2007.74,3420.02,3044.99,3507.16,599.91,583.77,2.77,0000 0000 0000 0000 000000
2018-07-28 02:50:05,-0.02,0.03,0.00,28.37,32.12,35.05,13.72,46.13,1014.66,2007.23,3419.68,3044.68,3507.00,600.43,584.61,2.82,0000 0000 0000 0000 000000
2018-07-28 02:55:06,0.01,0.03,0.00,28.18,32.12,35.24,13.65,46.02,1014.67,2007.17,3419.26,3044.48,3506.98,599.77,584.47,2.87,0000 0000 0000 0000 000000
2018-07-28 03:00:07,0.00,0.03,0.00,28.03,32.11,35.28,13.74,46.05,1014.67,2007.11,3419.01,3044.30,3506.94,600.24,585.15,2.92,0000 0000 0000 0000 000000
2018-07-28 03:05:09,0.00,0.03,0.00,27.89,32.10,35.22,13.76,45.98,1014.66,2007.20,3419.00,3044.55,3506.95,600.15,585.36,2.97,0000 0000 0000 0000 000000
2018-07-28 03:10:10,0.03,0.03,0.00,27.77,32.06,35.13,13.67,46.10,1014.66,2007.53,3419.00,3044.84,3506.97,600.23,585.68,3.02,0000 0000 0000 0000 000000
2018-07-28 03:15:11,0.02,0.03,0.00,27.68,32.03,35.02,13.74,46.17,1014.66,2007.88,3419.01,3044.97,3506.98,599.95,585.61,3.07,0000 0000 0000 0000 000000
2018-07-28 03:20:12,0.00,0.04,0.00,27.61,31.99,34.90,13.66,46.09,1014.59,2007.97,3419.01,3044.99,3506.99,599.81,585.56,3.12,0000 0000 0000 0000 000000
2018-07-28 03:25:13,0.00,0.04,0.00,27.54,31.94,34.79,13.79,45.95,1014.32,2007.99,3419.06,3044.99,3507.00,600.02,585.70,3.17,0000 0000 0000 0000 000000
2018-07-28 03:30:15,-0.00,0.04,0.00,27.49,31.89,34.65,13.76,45.92,1014.20,2007.99,3419.15,3045.07,3507.06,600.24,586.06,3.22,0000 0000 0000 0000 000000
2018-07-28 03:35:16,-0.02,0.03,0.00,27.46,31.84,34.54,13.65,45.95,1014.18,2008.00,3419.46,3045.47,3507.43,599.73,585.38,3.27,0000 0000 0000 0000 000000
2018-07-28 03:40:17,0.01,0.03,0.00,27.43,31.79,34.42,13.68,45.82,1014.18,2008.21,3419.92,3045.95,3507.95,600.15,585.94,3.32,0000 0000 0000 0000 000000
2018-07-28 03:45:19,0.05,0.04,0.00,27.42,31.74,34.34,13.73,45.92,1014.18,2008.84,3419.99,3045.99,3508.00,599.84,585.70,3.37,0000 0000 0000 0000 000000
2018-07-28 03:50:20,-0.00,0.04,0.00,27.41,31.69,34.24,13.66,45.85,1014.18,2008.98,3420.00,3046.13,3508.06,599.92,585.76,3.42,0000 0000 0000 0000 000000
2018-07-28 03:55:21,-0.02,0.04,0.00,27.40,31.64,34.20,13.70,45.81,1014.11,2008.99,3420.08,3046.74,3508.65,599.90,585.77,3.47,0000 0000 0000 0000 000000
2018-07-28 04:00:23,-0.01,0.04,0.00,27.40,31.59,34.16,13.74,45.82,1014.07,2009.01,3420.38,3046.97,3508.93,600.13,585.96,3.52,0000 0000 0000 0000 000000
2018-07-28 04:05:24,0.02,0.04,0.00,27.40,31.54,34.14,13.68,45.88,1014.16,2009.20,3420.92,3047.00,3508.99,599.91,585.83,3.57,0000 0000 0000 0000 000000
2018-07-28 04:10:25,0.04,0.04,0.00,27.40,31.50,34.12,13.72,45.82,1014.12,2009.79,3420.94,3047.06,3509.01,599.98,585.84,3.62,0000 0000 0000 0000 000000
2018-07-28 04:15:26,0.09,0.04,0.00,27.42,31.46,34.08,13.67,45.84,1014.11,2009.98,3419.73,3046.29,3507.70,599.95,585.79,3.67,0000 0000 0000 0000 000000
2018-07-28 04:20:27,-0.00,0.04,0.00,27.43,31.42,34.04,13.62,45.71,1014.13,2009.99,3419.65,3045.99,3507.20,599.95,585.82,3.72,0000 0000 0000 0000 000000
2018-07-28 04:25:28,-0.01,0.04,0.00,27.45,31.39,34.01,13.66,45.82,1014.13,2010.00,3419.95,3045.99,3507.66,599.99,585.83,3.77,0000 0000 0000 0000 000000
2018-07-28 04:30:29,0.00,0.04,0.00,27.46,31.36,33.97,13.70,45.83,1014.01,2010.05,3419.99,3046.00,3507.95,599.94,585.64,3.82,0000 0000 0000 0000 000000
2018-07-28 04:35:31,0.02,0.04,0.00,27.47,31.33,33.94,13.68,45.81,1014.02,2010.25,3419.99,3046.08,3507.98,600.05,585.65,3.87,0000 0000 0000 0000 000000
2018-07-28 04:40:32,0.03,0.04,0.00,27.49,31.30,33.92,13.71,46.03,1014.06,2010.72,3419.99,3046.35,3507.99,600.17,585.82,3.92,0000 0000 0000 0000 000000
2018-07-28 04:45:33,0.00,0.05,0.00,27.50,31.27,33.90,13.65,45.88,1014.14,2010.96,3420.00,3046.87,3507.99,600.18,585.96,3.97,0000 0000 0000 0000 000000
2018-07-28 04:50:35,0.00,0.05,0.00,27.52,31.25,33.89,13.74,45.90,1014.16,2010.98,3419.92,3046.75,3507.90,600.51,586.11,4.02,0000 0000 0000 0000 000000
2018-07-28 04:55:36,0.05,0.05,0.00,27.52,31.23,33.84,13.63,45.78,1014.15,2010.99,3419.08,3045.98,3507.06,599.88,585.42,4.07,0000 0000 0000 0000 000000
2018-07-28 05:00:37,0.04,0.05,0.00,27.55,31.21,33.77,13.64,45.73,1014.10,2010.99,3418.77,3045.15,3506.17,599.92,585.40,4.12,0000 0000 0000 0000 000000
2018-07-28 05:05:38,0.00,0.05,0.00,27.56,31.20,33.70,13.59,45.90,1013.89,2011.00,3418.71,3045.00,3506.00,599.54,585.03,4.17,0000 0000 0000 0000 000000
2018-07-28 05:10:39,0.00,0.05,0.00,27.57,31.18,33.64,13.66,45.92,1013.72,2011.01,3418.58,3045.00,3506.00,600.36,585.68,4.22,0000 0000 0000 0000 000000
2018-07-28 05:15:40,0.00,0.05,0.00,27.60,31.17,33.60,13.55,45.75,1013.70,2011.04,3418.65,3045.01,3506.00,599.48,584.77,4.27,0000 0000 0000 0000 000000
2018-07-28 05:20:41,0.01,0.05,0.00,27.62,31.15,33.56,13.60,45.77,1013.70,2011.11,3418.49,3045.01,3506.00,599.97,585.18,4.33,0000 0000 0000 0000 000000
2018-07-28 05:25:43,0.02,0.05,0.00,27.64,31.15,33.57,13.55,45.82,1013.72,2011.36,3418.53,3045.02,3505.99,599.72,584.92,4.38,0000 0000 0000 0000 000000
2018-07-28 05:30:44,0.00,0.05,0.00,27.66,31.15,33.55,13.67,45.94,1013.70,2011.39,3418.11,3045.01,3505.99,600.19,585.31,4.43,0000 0000 0000 0000 000000
2018-07-28 05:35:45,0.04,0.05,0.00,27.67,31.13,33.54,13.72,46.05,1013.70,2011.66,3418.07,3045.02,3505.98,600.25,585.39,4.48,0000 0000 0000 0000 000000
2018-07-28 05:40:46,0.01,0.05,0.00,27.70,31.12,33.54,13.68,45.90,1013.70,2011.87,3418.05,3045.02,3505.97,600.03,585.04,4.53,0000 0000 0000 0000 000000
2018-07-28 05:45:47,0.02,0.06,0.00,27.70,31.12,33.55,13.60,45.98,1013.69,2011.95,3418.01,3045.01,3505.75,600.10,585.03,4.58,0000 0000 0000 0000 000000
2018-07-28 05:50:48,0.01,0.06,0.00,27.72,31.12,33.53,13.65,45.89,1013.69,2011.93,3417.85,3044.97,3505.03,599.81,584.99,4.63,0000 0000 0000 0000 000000
2018-07-28 05:55:50,0.00,0.06,0.00,27.74,31.12,33.53,13.59,45.91,1013.69,2011.97,3417.75,3044.96,3505.00,600.04,584.87,4.68,0000 0000 0000 0000 000000
2018-07-28 06:00:51,0.01,0.06,0.00,27.76,31.12,33.53,13.69,45.97,1013.69,2011.95,3417.16,3044.91,3504.99,600.14,585.21,4.73,0000 0000 0000 0000 000000
2018-07-28 06:05:52,0.04,0.06,0.00,27.79,31.12,33.54,13.61,46.05,1013.69,2011.95,3416.67,3044.27,3504.42,600.01,584.90,4.78,0000 0000 0000 0000 000000
2018-07-28 06:10:53,0.09,0.06,0.00,27.80,31.12,33.53,13.68,45.88,1013.69,2011.95,3414.97,3043.02,3503.00,600.05,584.94,4.83,0000 0000 0000 0000 000000
2018-07-28 06:15:55,0.07,0.07,0.00,27.82,31.12,33.54,13.71,46.03,1013.67,2011.95,3413.05,3041.73,3501.38,600.27,584.92,4.88,0000 0000 0000 0000 000000
2018-07-28 06:20:56,0.04,0.07,0.00,27.85,31.13,33.55,13.61,45.69,1013.54,2011.88,3411.86,3040.99,3500.46,600.02,584.69,4.93,0000 0000 0000 0000 000000
2018-07-28 06:25:57,0.02,0.07,0.00,27.87,31.15,33.56,13.60,45.86,1013.68,2011.84,3411.02,3040.58,3499.99,599.98,584.51,4.98,0000 0000 0000 0000 000000
2018-07-28 06:30:58,0.03,0.07,0.00,27.89,31.15,33.55,13.56,45.93,1013.60,2011.84,3410.24,3040.03,3499.22,599.75,584.47,5.03,0000 0000 0000 0000 000000
2018-07-28 06:36:00,0.04,0.07,0.00,27.91,31.15,33.57,13.62,45.72,1013.58,2011.84,3409.24,3039.65,3498.63,600.23,584.73,5.08,0000 0000 0000 0000 000000
2018-07-28 06:41:01,0.02,0.08,0.00,27.93,31.16,33.58,13.58,45.87,1013.49,2011.72,3407.96,3038.87,3497.81,599.83,584.33,5.13,0000 0000 0000 0000 000000
2018-07-28 06:46:03,0.05,0.08,0.00,27.95,31.17,33.59,13.58,45.87,1013.37,2011.82,3407.06,3038.17,3497.07,600.08,584.32,5.18,0000 0000 0000 0000 000000
2018-07-28 06:51:04,0.04,0.08,0.00,27.97,31.17,33.59,13.56,45.65,1013.38,2011.67,3405.96,3037.75,3496.50,599.65,583.98,5.23,0000 0000 0000 0000 000000
2018-07-28 06:56:05,0.05,0.08,0.00,28.00,31.19,33.61,13.60,45.77,1013.42,2011.57,3404.39,3036.87,3495.31,600.00,584.28,5.28,0000 0000 0000 0000 000000
2018-07-28 07:01:07,0.02,0.08,0.00,28.02,31.20,33.62,13.62,45.87,1013.39,2011.35,3403.39,3036.08,3494.79,600.04,584.07,5.33,0000 0000 0000 0000 000000
2018-07-28 07:06:08,0.00,0.08,0.00,28.05,31.21,33.63,13.58,45.62,1013.34,2011.27,3403.01,3036.00,3494.25,599.73,583.86,5.38,0000 0000 0000 0000 000000
2018-07-28 07:11:09,-0.01,0.08,0.00,28.07,31.22,33.63,13.57,45.71,1013.39,2011.08,3402.98,3035.99,3494.00,599.67,583.83,5.43,0000 0000 0000 0000 000000
2018-07-28 07:16:10,0.00,0.08,0.00,28.09,31.23,33.65,13.61,45.68,1013.49,2011.07,3402.72,3035.97,3493.93,600.25,584.28,5.48,0000 0000 0000 0000 000000
2018-07-28 07:21:12,0.03,0.09,0.00,28.12,31.25,33.67,13.59,45.73,1013.52,2011.07,3402.05,3035.69,3493.30,599.82,584.01,5.53,0000 0000 0000 0000 000000
2018-07-28 07:26:13,0.00,0.09,0.00,28.15,31.26,33.67,13.48,45.78,1013.62,2011.02,3401.97,3035.10,3493.01,599.98,584.11,5.58,0000 0000 0000 0000 000000
2018-07-28 07:31:15,0.02,0.09,0.00,28.18,31.28,33.69,13.74,46.12,1013.55,2011.00,3401.34,3035.00,3492.81,600.90,584.88,5.63,0000 0000 0000 0000 000000
2018-07-28 07:36:16,0.00,0.09,0.00,28.21,31.30,33.70,13.61,45.85,1013.45,2011.00,3401.02,3034.99,3492.16,599.97,583.86,5.68,0000 0000 0000 0000 000000
2018-07-28 07:41:17,0.00,0.09,0.00,28.23,31.31,33.72,13.58,45.73,1013.37,2011.00,3400.98,3034.88,3492.00,599.54,583.60,5.73,0000 0000 0000 0000 000000
2018-07-28 07:46:19,0.02,0.09,0.00,28.26,31.33,33.74,13.59,45.82,1013.23,2011.00,3400.71,3034.39,3491.91,600.06,583.74,5.78,0000 0000 0000 0000 000000
2018-07-28 07:51:20,0.01,0.09,0.00,28.31,31.35,33.76,13.39,45.51,1013.23,2010.99,3400.11,3034.05,3491.39,599.67,583.36,5.83,0000 0000 0000 0000 000000
2018-07-28 07:56:21,0.00,0.09,0.00,28.34,31.37,33.78,13.61,45.95,1013.23,2010.97,3399.99,3034.00,3491.01,599.93,583.44,5.88,0000 0000 0000 0000 000000
2018-07-28 08:01:23,0.01,0.09,0.00,28.38,31.38,33.80,13.59,45.92,1013.23,2010.91,3399.52,3033.97,3490.85,599.84,583.39,5.93,0000 0000 0000 0000 000000
2018-07-28 08:06:24,0.02,0.09,0.00,28.41,31.40,33.82,13.55,45.95,1013.22,2010.73,3399.00,3033.16,3490.08,599.46,582.97,5.98,0000 0000 0000 0000 000000
2018-07-28 08:11:25,-0.00,0.09,0.00,28.44,31.42,33.84,13.53,45.84,1013.21,2010.44,3398.47,3032.99,3489.51,600.34,583.76,6.03,0000 0000 0000 0000 000000
2018-07-28 08:16:27,-0.01,0.09,0.00,28.47,31.45,33.87,13.55,45.88,1013.22,2010.19,3397.97,3032.74,3488.93,599.87,583.19,6.08,0000 0000 0000 0000 000000
2018-07-28 08:21:28,0.03,0.09,0.00,28.50,31.47,33.89,13.61,45.81,1013.23,2010.08,3397.26,3032.03,3488.10,599.87,582.92,6.13,0000 0000 0000 0000 000000
2018-07-28 08:26:29,0.00,0.09,0.00,28.53,31.49,33.91,13.49,45.68,1013.32,2010.02,3397.00,3031.95,3487.97,599.50,582.54,6.18,0000 0000 0000 0000 000000
2018-07-28 08:31:30,0.03,0.09,0.00,28.56,31.51,33.93,13.55,45.58,1013.26,2010.00,3396.76,3031.46,3487.43,599.90,582.92,6.23,0000 0000 0000 0000 000000
2018-07-28 08:36:31,0.02,0.10,0.00,28.59,31.53,33.96,13.58,45.75,1013.22,2010.00,3396.08,3031.03,3487.00,600.28,583.26,6.28,0000 0000 0000 0000 000000
2018-07-28 08:41:33,0.01,0.10,0.00,28.61,31.56,33.98,13.61,45.86,1013.24,2009.99,3395.97,3030.98,3486.54,599.78,582.70,6.33,0000 0000 0000 0000 000000
2018-07-28 08:46:34,0.02,0.10,0.00,28.64,31.58,34.01,13.63,45.76,1013.24,2009.95,3395.50,3030.86,3486.06,600.02,582.98,6.38,0000 0000 0000 0000 000000
2018-07-28 08:51:35,0.01,0.10,0.00,28.66,31.61,34.03,13.61,45.58,1013.39,2009.86,3395.02,3030.22,3485.93,600.43,583.52,6.43,0000 0000 0000 0000 000000
2018-07-28 08:56:37,-0.02,0.10,0.00,28.68,31.63,34.05,13.50,45.46,1013.35,2009.52,3394.88,3030.00,3485.27,599.78,582.81,6.48,0000 0000 0000 0000 000000
2018-07-28 09:01:38,-0.01,0.10,0.00,28.71,31.66,34.08,13.45,45.38,1013.43,2009.13,3394.23,3030.00,3485.00,599.21,582.20,6.53,0000 0000 0000 0000 000000
2018-07-28 09:06:39,0.01,0.10,0.00,28.73,31.68,34.10,13.48,45.38,1013.48,2009.04,3394.01,3029.78,3484.83,599.69,582.49,6.58,0000 0000 0000 0000 000000
2018-07-28 09:11:40,0.03,0.10,0.00,28.76,31.70,34.13,13.56,45.48,1013.39,2009.00,3393.76,3029.16,3484.07,599.60,582.42,6.64,0000 0000 0000 0000 000000
2018-07-28 09:16:41,0.01,0.10,0.00,28.80,31.73,34.16,13.62,45.54,1013.51,2009.00,3393.06,3029.00,3483.99,600.39,583.08,6.69,0000 0000 0000 0000 000000
2018-07-28 09:21:43,0.01,0.10,0.00,28.83,31.75,34.18,13.56,45.61,1013.57,2009.00,3392.98,3029.00,3483.67,600.00,582.77,6.74,0000 0000 0000 0000 000000
2018-07-28 09:26:44,0.06,0.10,0.00,28.85,31.78,34.21,13.57,45.32,1013.56,2008.99,3392.30,3028.40,3482.62,599.96,582.70,6.79,0000 0000 0000 0000 000000
2018-07-28 09:31:45,0.04,0.10,0.00,28.88,31.80,34.23,13.63,45.48,1013.65,2008.94,3391.13,3027.16,3481.62,600.57,583.05,6.84,0000 0000 0000 0000 000000
2018-07-28 09:36:46,0.11,0.11,0.00,28.91,31.83,34.26,13.56,45.63,1013.63,2008.75,3389.79,3025.76,3479.67,600.04,582.87,6.89,0000 0000 0000 0000 000000
2018-07-28 09:41:47,0.34,0.11,0.00,28.94,31.86,34.29,13.54,45.38,1013.63,2008.36,3385.01,3021.68,3474.74,599.78,582.34,6.94,0000 0000 0000 0000 000000
2018-07-28 09:46:48,0.14,0.14,0.00,28.98,31.88,34.32,13.47,45.28,1013.65,2008.09,3378.16,3016.17,3469.09,600.05,582.58,6.99,0000 0000 0000 0000 000000
2018-07-28 09:51:50,0.01,0.14,0.00,29.01,31.91,34.35,13.53,45.25,1013.66,2008.02,3377.82,3016.00,3468.38,599.98,582.47,7.04,0000 0000 0000 0000 000000
2018-07-28 09:56:51,0.01,0.14,0.00,29.04,31.94,34.37,13.49,45.24,1013.67,2008.00,3377.19,3015.96,3468.02,599.98,582.55,7.09,0000 0000 0000 0000 000000
2018-07-28 10:01:52,0.02,0.14,0.00,29.07,31.96,34.41,13.48,45.18,1013.67,2008.00,3376.98,3015.61,3467.81,600.08,582.55,7.14,0000 0000 0000 0000 000000
2018-07-28 10:06:53,0.02,0.14,0.00,29.10,31.99,34.45,13.57,45.50,1013.69,2008.00,3376.59,3015.03,3467.09,599.76,582.01,7.19,0000 0000 0000 0000 000000
2018-07-28 10:11:54,0.00,0.14,0.00,29.13,32.02,34.48,13.47,45.33,1013.69,2007.95,3376.03,3014.99,3466.95,599.73,581.92,7.24,0000 0000 0000 0000 000000
2018-07-28 10:16:56,-0.01,0.14,0.00,29.16,32.06,34.51,13.51,45.44,1013.68,2007.68,3375.84,3014.64,3466.25,599.98,582.21,7.29,0000 0000 0000 0000 000000
2018-07-28 10:21:57,-0.01,0.14,0.00,29.19,32.08,34.54,13.59,45.30,1013.69,2007.19,3375.06,3014.02,3465.87,600.33,582.34,7.34,0000 0000 0000 0000 000000
2018-07-28 10:26:58,0.00,0.14,0.00,29.23,32.12,34.59,13.49,45.10,1013.69,2007.05,3374.97,3013.99,3465.13,599.48,581.48,7.39,0000 0000 0000 0000 000000
2018-07-28 10:31:59,0.03,0.14,0.00,29.26,32.16,34.65,13.53,45.54,1013.69,2007.00,3374.40,3013.52,3464.97,600.01,582.02,7.44,0000 0000 0000 0000 000000
2018-07-28 10:37:00,0.02,0.14,0.00,29.31,32.19,34.72,13.52,45.37,1013.69,2007.00,3374.01,3013.02,3464.34,600.18,582.18,7.49,0000 0000 0000 0000 000000
2018-07-28 10:42:02,0.00,0.14,0.00,29.34,32.23,34.79,13.49,45.22,1013.69,2006.97,3373.83,3012.98,3463.99,599.81,581.71,7.54,0000 0000 0000 0000 000000
2018-07-28 10:47:03,0.00,0.14,0.00,29.39,32.27,34.87,13.55,45.09,1013.69,2006.72,3373.11,3012.52,3463.46,600.25,581.99,7.59,0000 0000 0000 0000 000000
2018-07-28 10:52:04,-0.02,0.14,0.00,29.44,32.31,34.94,13.48,45.32,1013.69,2006.15,3372.71,3012.02,3462.87,600.18,581.74,7.64,0000 0000 0000 0000 000000
2018-07-28 10:57:06,0.01,0.14,0.00,29.50,32.35,35.01,13.60,45.42,1013.69,2006.01,3372.08,3011.96,3462.16,600.43,582.24,7.69,0000 0000 0000 0000 000000
2018-07-28 11:02:07,0.02,0.14,0.00,29.56,32.39,35.07,13.57,45.16,1013.69,2006.00,3371.99,3011.34,3461.99,599.93,581.39,7.74,0000 0000 0000 0000 000000
2018-07-28 11:07:09,0.03,0.14,0.00,29.63,32.44,35.14,13.47,44.65,1013.69,2006.00,3371.19,3010.97,3461.23,600.02,581.26,7.79,0000 0000 0000 0000 000000
2018-07-28 11:12:10,0.01,0.14,0.00,29.69,32.48,35.19,13.52,44.98,1013.70,2005.95,3370.90,3010.49,3460.92,599.97,581.05,7.84,0000 0000 0000 0000 000000
2018-07-28 11:17:11,-0.01,0.15,0.00,29.75,32.52,35.24,13.50,44.40,1013.71,2005.58,3370.21,3010.04,3460.18,599.73,580.90,7.89,0000 0000 0000 0000 000000
2018-07-28 11:22:12,-0.02,0.14,0.00,29.80,32.56,35.27,13.53,44.42,1013.70,2005.12,3369.95,3009.96,3459.96,600.15,581.14,7.94,0000 0000 0000 0000 000000
2018-07-28 11:27:13,0.04,0.14,0.00,29.84,32.60,35.29,13.54,44.90,1013.69,2005.01,3369.24,3009.32,3459.24,599.90,580.75,7.99,0000 0000 0000 0000 000000
2018-07-28 11:32:14,0.00,0.15,0.00,29.88,32.63,35.30,13.41,44.90,1013.69,2005.00,3368.97,3009.01,3458.96,599.38,580.22,8.04,0000 0000 0000 0000 000000
2018-07-28 11:37:15,0.03,0.15,0.00,29.91,32.67,35.32,13.46,44.70,1013.69,2004.99,3368.32,3008.79,3458.26,599.97,580.66,8.09,0000 0000 0000 0000 000000
2018-07-28 11:42:16,0.00,0.15,0.00,29.92,32.70,35.32,13.48,44.83,1013.69,2004.89,3367.99,3008.15,3457.98,600.40,581.14,8.14,0000 0000 0000 0000 000000
2018-07-28 11:47:18,0.00,0.15,0.00,29.92,32.73,35.30,13.59,44.46,1013.69,2004.70,3367.84,3008.01,3457.52,600.16,581.03,8.19,0000 0000 0000 0000 000000
2018-07-28 11:52:19,-0.03,0.15,0.00,29.92,32.75,35.31,13.48,44.27,1013.69,2004.24,3367.17,3008.00,3457.03,599.78,580.54,8.24,0000 0000 0000 0000 000000
2018-07-28 11:57:20,-0.01,0.15,0.00,29.91,32.77,35.32,13.55,44.28,1013.69,2004.03,3366.99,3007.93,3456.92,600.59,581.45,8.29,0000 0000 0000 0000 000000
2018-07-28 12:02:22,0.03,0.15,0.00,29.87,32.79,35.31,13.45,44.33,1013.69,2004.00,3366.68,3007.51,3456.34,599.98,580.84,8.34,0000 0000 0000 0000 000000
2018-07-28 12:07:23,0.01,0.15,0.00,29.81,32.80,35.33,13.45,44.33,1013.68,2004.00,3366.14,3007.09,3456.02,599.61,580.69,8.39,0000 0000 0000 0000 000000
2018-07-28 12:12:24,0.00,0.15,0.00,29.72,32.80,35.33,13.55,44.97,1013.63,2004.00,3366.01,3007.02,3456.00,600.28,581.32,8.44,0000 0000 0000 0000 000000
2018-07-28 12:17:25,0.00,0.15,0.00,29.62,32.81,35.32,13.53,45.48,1013.59,2004.00,3365.99,3007.00,3455.97,599.88,581.06,8.49,0000 0000 0000 0000 000000
2018-07-28 12:22:27,0.02,0.15,0.00,29.54,32.82,35.31,13.54,45.25,1013.44,2004.00,3365.60,3007.00,3455.31,600.50,581.88,8.54,0000 0000 0000 0000 000000
2018-07-28 12:27:28,0.06,0.15,0.00,29.46,32.82,35.32,13.53,45.08,1013.28,2003.98,3364.40,3006.14,3454.31,600.29,581.48,8.59,0000 0000 0000 0000 000000
2018-07-28 12:32:29,0.01,0.15,0.00,29.40,32.81,35.30,13.54,45.00,1013.22,2003.98,3364.01,3005.73,3453.96,599.62,581.14,8.64,0000 0000 0000 0000 000000
2018-07-28 12:37:31,0.01,0.15,0.00,29.35,32.80,35.28,13.59,44.91,1013.21,2003.97,3363.99,3005.50,3453.60,600.26,581.75,8.69,0000 0000 0000 0000 000000
2018-07-28 12:42:32,0.01,0.15,0.00,29.31,32.80,35.27,13.59,45.11,1013.20,2003.99,3363.86,3005.15,3453.12,599.85,581.49,8.74,0000 0000 0000 0000 000000
2018-07-28 12:47:34,0.00,0.15,0.00,29.28,32.80,35.25,13.52,45.01,1013.20,2003.99,3363.60,3005.08,3453.02,599.83,581.53,8.79,0000 0000 0000 0000 000000
2018-07-28 12:52:35,0.00,0.16,0.00,29.25,32.77,35.25,13.51,44.67,1013.20,2003.98,3363.24,3005.04,3453.00,599.39,581.20,8.84,0000 0000 0000 0000 000000
2018-07-28 12:57:36,0.00,0.16,0.00,29.22,32.77,35.25,13.62,45.16,1013.20,2003.97,3363.05,3005.01,3452.99,600.35,582.13,8.89,0000 0000 0000 0000 000000
2018-07-28 13:02:37,0.00,0.16,0.00,29.19,32.76,35.25,13.65,44.93,1013.20,2003.98,3363.02,3005.00,3452.97,600.80,582.55,8.94,0000 0000 0000 0000 000000